sat.trackr.live / text

‹ back to catalog

QPS-SAR-7 (TSUKUYOMI-II)

NORAD 59447 · 2024-066F

PAYLOAD ACTIVE UNKNOWN

§ Identity

Operator
Country
JPN
Launch date
2024-04-07
Launch site
AFETR
Launch vehicle
Mass (kg)
RCS (m²)

External: N2YO · Heavens-Above · Gunter

§ Orbital elements

Epoch: 2026-05-25T01:26:11.980896Z

Period
95.45 min
Inclination
45.6052°
Eccentricity
0.0001919
Mean motion
15.08574059 rev/d
Perigee alt
539.2 km
Apogee alt
541.9 km
Semi-major
6,918.7 km
B*
4.0486e-4
RAAN
6.6828°
Arg perigee
214.9968°
Mean anomaly
145.0791°
Rev number
11,673

§ Raw data

QPS-SAR-7 (TSUKUYOMI-II)1 59447U 24066F   26145.05986089  .00006179  00000+0  40486-3 0  99972 59447  45.6052   6.6828 0001919 214.9968 145.0791 15.08574059116731

JSON: /api/v1/satellites/59447 · /tle

For live sub-satellite position, see the globe view (requires WebGL).

§ Visibility from observer

Set your observer location to see the next 7 days of passes ≥ 10°. The values pass through the URL so the page stays shareable.

No JS? Fill the form by hand. The geolocation button needs JavaScript.